Precipitable_Water
0.48 0.48 0.47 0.47 0.46 0.46 0.46 0.46 0.47 0.49 0.50 0.52 0.53 0.53 0.54 0.54 0.54 0.53 0.52 0.51 0.51 0.50 0.48 0.45 0.44 0.41 0.40 0.39 0.38 0.38 0.37 0.28 0.23 0.24 0.23 0.23 0.32 0.34 0.42 0.46 0.44 0.44 0.44 0.38 0.26 0.24 0.28 0.43 0.54 0.65 0.65 0.71 0.73 0.71 0.88 1.00 1.18 1.20 0.91 0.83 0.75 0.88 0.92 1.08 1.05 1.13 1.24 1.09 1.22 1.28 1.33 1.27 1.18 1.28 1.33 1.37 1.28 1.25 1.28 1.30 1.30 1.32 1.34 1.29 1.27 1.35 1.41 1.51
0.47 0.46 0.46 0.46 0.45 0.45 0.44 0.44 0.45 0.47 0.49 0.49 0.50 0.51 0.53 0.54 0.54 0.54 0.53 0.52 0.52 0.51 0.49 0.48 0.47 0.45 0.43 0.41 0.40 0.40 0.35 0.26 0.20 0.25 0.23 0.29 0.39 0.49 0.50 0.47 0.43 0.41 0.42 0.24 0.20 0.23 0.34 0.51 0.60 0.64 0.63 0.63 0.75 0.61 0.71 0.70 1.08 0.93 0.89 0.84 0.71 0.87 0.95 1.12 1.19 1.20 1.19 1.16 1.28 1.34 1.40 1.31 1.25 1.30 1.27 1.11 1.11 1.15 1.15 1.19 1.22 1.21 1.28 1.31 1.32 1.32 1.35 1.43
0.49 0.46 0.45 0.45 0.44 0.45 0.45 0.44 0.45 0.46 0.47 0.48 0.48 0.49 0.51 0.54 0.54 0.54 0.54 0.54 0.53 0.52 0.52 0.50 0.49 0.49 0.46 0.44 0.42 0.41 0.36 0.25 0.34 0.36 0.44 0.49 0.44 0.48 0.54 0.49 0.40 0.39 0.28 0.21 0.20 0.21 0.31 0.50 0.54 0.50 0.55 0.56 0.62 0.54 0.57 0.60 0.83 0.91 0.87 0.75 0.79 0.97 1.02 1.10 1.19 1.19 1.28 1.29 1.25 1.28 1.36 1.32 1.32 1.31 1.33 1.13 1.09 1.12 1.05 1.04 1.14 1.13 1.17 1.25 1.28 1.32 1.32 1.39
0.52 0.47 0.45 0.45 0.45 0.45 0.44 0.44 0.44 0.45 0.45 0.46 0.46 0.48 0.51 0.52 0.53 0.54 0.54 0.55 0.54 0.53 0.54 0.53 0.52 0.51 0.50 0.46 0.44 0.42 0.41 0.47 0.47 0.61 0.72 0.67 0.58 0.54 0.52 0.48 0.43 0.36 0.25 0.20 0.19 0.29 0.41 0.46 0.45 0.47 0.50 0.51 0.55 0.56 0.53 0.68 0.73 0.96 0.89 0.77 0.85 1.00 0.93 1.05 1.18 1.22 1.29 1.32 1.22 1.23 1.35 1.28 1.29 1.30 1.24 1.19 1.04 1.06 1.12 1.17 1.12 1.14 1.20 1.29 1.28 1.25 1.30 1.34
0.54 0.50 0.46 0.45 0.45 0.44 0.43 0.43 0.44 0.44 0.44 0.44 0.45 0.48 0.50 0.51 0.52 0.53 0.54 0.54 0.54 0.55 0.56 0.56 0.54 0.54 0.51 0.48 0.45 0.49 0.36 0.41 0.50 0.71 0.70 0.69 0.64 0.58 0.56 0.53 0.45 0.35 0.24 0.20 0.21 0.33 0.42 0.44 0.44 0.46 0.54 0.48 0.54 0.55 0.56 0.57 0.80 0.97 0.88 0.94 0.97 1.03 0.90 1.08 1.17 1.23 1.24 1.30 1.21 1.23 1.17 1.17 1.39 1.22 1.21 1.20 1.03 1.00 1.12 1.24 1.31 1.30 1.31 1.33 1.27 1.23 1.27 1.30
0.55 0.52 0.49 0.46 0.45 0.44 0.43 0.42 0.43 0.43 0.43 0.43 0.46 0.48 0.49 0.51 0.51 0.51 0.51 0.53 0.54 0.56 0.57 0.57 0.55 0.54 0.52 0.49 0.52 0.45 0.33 0.26 0.73 0.70 0.70 0.62 0.62 0.56 0.57 0.53 0.47 0.36 0.26 0.17 0.17 0.35 0.44 0.44 0.43 0.39 0.46 0.47 0.48 0.49 0.54 0.53 0.65 0.67 0.93 0.99 1.04 1.03 0.92 1.11 1.15 1.19 1.18 1.16 1.15 1.10 1.21 1.30 1.25 1.09 1.26 1.21 1.15 1.23 1.36 1.39 1.39 1.43 1.41 1.41 1.32 1.22 1.20 1.26
0.55 0.53 0.51 0.48 0.46 0.44 0.42 0.42 0.43 0.42 0.42 0.44 0.46 0.48 0.49 0.49 0.50 0.49 0.50 0.51 0.54 0.56 0.58 0.57 0.56 0.55 0.52 0.49 0.52 0.45 0.32 0.39 0.51 0.55 0.66 0.60 0.51 0.47 0.50 0.49 0.41 0.30 0.23 0.16 0.22 0.37 0.42 0.40 0.38 0.41 0.47 0.44 0.44 0.43 0.44 0.47 0.46 0.55 0.83 0.99 0.98 1.03 0.97 1.10 1.12 1.18 1.17 1.16 1.14 1.24 1.35 1.17 1.20 0.95 1.24 1.14 1.25 1.37 1.40 1.45 1.43 1.48 1.49 1.41 1.25 1.18 1.16 1.26
0.55 0.54 0.52 0.50 0.47 0.44 0.43 0.42 0.42 0.42 0.43 0.45 0.46 0.48 0.49 0.48 0.48 0.49 0.50 0.51 0.52 0.54 0.57 0.55 0.55 0.55 0.53 0.40 0.35 0.34 0.40 0.40 0.57 0.68 0.62 0.55 0.43 0.38 0.41 0.38 0.31 0.23 0.18 0.16 0.30 0.39 0.43 0.35 0.33 0.45 0.40 0.37 0.39 0.42 0.48 0.49 0.56 0.69 0.78 1.00 1.02 1.10 1.09 1.15 1.20 1.18 1.15 1.19 1.28 1.29 1.15 1.14 1.22 1.16 1.21 1.15 1.31 1.42 1.35 1.45 1.45 1.47 1.40 1.34 1.21 1.15 1.20 1.26
0.54 0.54 0.53 0.52 0.48 0.45 0.44 0.42 0.41 0.41 0.42 0.44 0.46 0.47 0.48 0.48 0.48 0.48 0.50 0.51 0.51 0.53 0.53 0.53 0.53 0.55 0.56 0.48 0.36 0.40 0.44 0.60 0.68 0.66 0.61 0.38 0.28 0.31 0.30 0.24 0.26 0.18 0.17 0.21 0.32 0.45 0.43 0.37 0.34 0.36 0.31 0.34 0.39 0.40 0.45 0.51 0.58 0.83 0.86 0.99 1.02 1.05 1.16 1.20 1.18 1.18 1.16 1.17 1.24 1.14 1.15 1.26 1.28 1.35 1.13 1.23 1.38 1.43 1.38 1.41 1.45 1.45 1.37 1.27 1.21 1.18 1.19 1.26
0.53 0.54 0.53 0.52 0.50 0.46 0.44 0.42 0.41 0.40 0.41 0.43 0.45 0.45 0.46 0.47 0.46 0.48 0.49 0.50 0.51 0.51 0.50 0.51 0.54 0.53 0.49 0.43 0.46 0.33 0.47 0.62 0.65 0.63 0.53 0.38 0.32 0.26 0.28 0.25 0.18 0.17 0.17 0.21 0.34 0.40 0.38 0.35 0.35 0.32 0.30 0.35 0.39 0.37 0.45 0.51 0.57 1.00 1.03 1.07 1.06 1.12 1.14 1.21 1.15 1.14 1.15 1.14 1.24 1.08 1.10 1.15 1.32 1.21 0.95 1.25 1.34 1.47 1.39 1.37 1.42 1.39 1.35 1.31 1.24 1.19 1.23 1.28
0.53 0.53 0.53 0.52 0.50 0.47 0.45 0.43 0.41 0.40 0.41 0.42 0.43 0.43 0.44 0.44 0.45 0.47 0.48 0.49 0.50 0.51 0.50 0.50 0.53 0.52 0.44 0.44 0.31 0.27 0.48 0.56 0.58 0.56 0.53 0.42 0.40 0.35 0.31 0.36 0.24 0.16 0.23 0.31 0.34 0.38 0.39 0.38 0.36 0.30 0.26 0.30 0.35 0.38 0.49 0.51 0.79 1.05 0.97 1.06 1.11 1.16 1.19 1.21 1.16 1.10 1.14 1.12 1.29 1.22 1.13 1.25 1.31 1.22 1.07 1.23 1.32 1.45 1.36 1.35 1.39 1.37 1.38 1.32 1.25 1.21 1.28 1.34
0.53 0.52 0.52 0.51 0.50 0.48 0.46 0.43 0.41 0.40 0.40 0.41 0.42 0.43 0.43 0.45 0.46 0.48 0.49 0.50 0.50 0.50 0.51 0.52 0.52 0.50 0.49 0.37 0.31 0.29 0.47 0.49 0.52 0.56 0.52 0.43 0.40 0.38 0.37 0.36 0.32 0.31 0.33 0.32 0.33 0.35 0.34 0.29 0.28 0.24 0.21 0.32 0.33 0.41 0.50 0.50 0.76 0.93 0.93 0.85 1.02 1.11 1.00 1.07 0.99 1.07 1.18 1.12 1.33 1.33 1.15 1.06 1.14 1.05 1.25 1.39 1.43 1.44 1.42 1.31 1.35 1.39 1.36 1.32 1.26 1.26 1.30 1.36
0.52 0.52 0.51 0.50 0.49 0.48 0.45 0.43 0.41 0.40 0.40 0.42 0.43 0.44 0.45 0.46 0.47 0.48 0.50 0.50 0.51 0.51 0.51 0.51 0.52 0.51 0.41 0.30 0.32 0.41 0.46 0.48 0.49 0.52 0.53 0.48 0.46 0.45 0.43 0.38 0.31 0.31 0.35 0.32 0.31 0.31 0.31 0.30 0.27 0.23 0.25 0.28 0.35 0.40 0.52 0.54 0.54 0.88 0.97 0.83 0.84 0.86 0.79 0.98 1.12 1.19 1.18 1.24 1.32 1.27 0.73 0.85 1.03 1.21 1.36 1.53 1.48 1.52 1.42 1.28 1.32 1.34 1.33 1.30 1.27 1.26 1.30 1.39
0.50 0.51 0.50 0.49 0.48 0.47 0.45 0.43 0.41 0.41 0.43 0.44 0.45 0.45 0.45 0.45 0.45 0.47 0.49 0.49 0.53 0.53 0.56 0.59 0.58 0.52 0.43 0.30 0.43 0.52 0.45 0.46 0.47 0.44 0.44 0.49 0.45 0.43 0.43 0.40 0.35 0.31 0.33 0.30 0.29 0.29 0.30 0.29 0.26 0.23 0.26 0.29 0.33 0.50 0.41 0.51 0.54 0.63 0.84 0.85 0.66 0.59 0.64 0.99 1.09 1.18 1.06 1.28 1.28 1.26 0.74 0.82 1.02 1.20 1.46 1.58 1.64 1.47 1.37 1.31 1.32 1.29 1.32 1.30 1.28 1.25 1.30 1.37
0.46 0.49 0.49 0.47 0.47 0.46 0.43 0.41 0.42 0.45 0.48 0.48 0.47 0.46 0.45 0.44 0.45 0.47 0.52 0.55 0.57 0.60 0.67 0.72 0.74 0.55 0.48 0.48 0.58 0.61 0.55 0.41 0.40 0.42 0.46 0.46 0.43 0.40 0.38 0.39 0.36 0.33 0.30 0.28 0.29 0.31 0.30 0.28 0.24 0.19 0.19 0.30 0.36 0.38 0.35 0.45 0.49 0.63 0.53 0.49 0.60 0.53 0.69 0.91 1.13 1.12 0.94 1.15 1.30 1.15 0.80 0.87 1.07 1.24 1.39 1.55 1.59 1.54 1.42 1.33 1.32 1.30 1.31 1.31 1.28 1.25 1.28 1.37
0.44 0.46 0.48 0.46 0.45 0.44 0.43 0.42 0.44 0.49 0.51 0.52 0.50 0.48 0.48 0.49 0.50 0.53 0.56 0.58 0.59 0.61 0.69 0.59 0.66 0.63 0.48 0.33 0.44 0.49 0.44 0.34 0.33 0.41 0.47 0.44 0.44 0.39 0.38 0.38 0.35 0.33 0.31 0.30 0.30 0.30 0.28 0.25 0.20 0.18 0.16 0.22 0.27 0.29 0.28 0.32 0.29 0.39 0.33 0.33 0.42 0.52 0.64 0.76 1.03 1.14 1.15 1.09 1.22 1.09 0.81 0.96 1.04 1.29 1.44 1.53 1.50 1.50 1.43 1.30 1.31 1.31 1.30 1.28 1.27 1.25 1.29 1.34
0.42 0.45 0.47 0.45 0.44 0.44 0.42 0.43 0.45 0.50 0.54 0.56 0.57 0.53 0.54 0.56 0.59 0.61 0.68 0.71 0.68 0.68 0.62 0.45 0.61 0.66 0.33 0.43 0.58 0.38 0.34 0.39 0.40 0.40 0.40 0.43 0.40 0.35 0.33 0.35 0.31 0.29 0.30 0.30 0.30 0.26 0.24 0.20 0.19 0.17 0.16 0.16 0.19 0.23 0.21 0.22 0.21 0.34 0.53 0.45 0.55 0.54 0.67 0.65 0.91 1.06 1.09 1.08 0.93 1.10 0.93 1.00 1.14 1.30 1.45 1.56 1.55 1.50 1.42 1.34 1.32 1.33 1.30 1.27 1.24 1.27 1.29 1.33
0.43 0.43 0.45 0.45 0.43 0.43 0.42 0.43 0.46 0.51 0.56 0.57 0.57 0.56 0.58 0.69 0.69 0.61 0.66 0.72 0.76 0.79 0.71 0.70 0.60 0.52 0.39 0.53 0.31 0.32 0.38 0.37 0.35 0.37 0.37 0.39 0.34 0.33 0.32 0.29 0.28 0.27 0.26 0.24 0.28 0.22 0.22 0.19 0.18 0.15 0.15 0.15 0.15 0.15 0.14 0.15 0.35 0.40 0.47 0.49 0.56 0.64 0.68 0.64 0.67 0.88 0.96 1.04 0.93 0.95 0.96 1.08 1.22 1.34 1.47 1.53 1.57 1.49 1.40 1.36 1.33 1.33 1.31 1.24 1.24 1.26 1.29 1.33
0.44 0.42 0.44 0.45 0.42 0.42 0.42 0.43 0.46 0.53 0.57 0.56 0.53 0.57 0.72 0.75 0.78 0.66 0.56 0.63 0.48 0.42 0.38 0.47 0.41 0.26 0.22 0.33 0.43 0.39 0.38 0.40 0.39 0.38 0.32 0.33 0.33 0.31 0.29 0.31 0.28 0.24 0.20 0.19 0.19 0.20 0.20 0.18 0.18 0.15 0.14 0.15 0.17 0.21 0.26 0.37 0.44 0.53 0.60 0.63 0.64 0.58 0.59 0.62 0.79 0.96 0.97 0.89 0.87 0.91 0.87 1.06 1.21 1.26 1.30 1.37 1.45 1.41 1.34 1.39 1.34 1.31 1.29 1.32 1.31 1.34 1.33 1.33
0.46 0.44 0.43 0.44 0.42 0.41 0.41 0.42 0.46 0.51 0.56 0.50 0.48 0.49 0.56 0.44 0.48 0.42 0.54 0.52 0.40 0.36 0.36 0.39 0.44 0.42 0.44 0.44 0.38 0.40 0.42 0.43 0.37 0.37 0.34 0.35 0.32 0.30 0.28 0.27 0.24 0.23 0.20 0.16 0.17 0.18 0.19 0.14 0.13 0.14 0.15 0.25 0.28 0.31 0.35 0.41 0.46 0.64 0.68 0.66 0.63 0.58 0.64 0.81 0.86 0.96 1.04 0.87 0.86 0.91 0.96 1.05 1.14 1.18 1.21 1.30 1.37 1.32 1.33 1.30 1.30 1.27 1.27 1.31 1.35 1.43 1.45 1.36
0.46 0.44 0.43 0.44 0.42 0.40 0.40 0.41 0.47 0.51 0.54 0.50 0.47 0.41 0.33 0.35 0.34 0.27 0.36 0.36 0.44 0.47 0.43 0.42 0.43 0.40 0.37 0.41 0.41 0.36 0.32 0.35 0.39 0.38 0.34 0.38 0.30 0.28 0.25 0.26 0.23 0.19 0.19 0.18 0.18 0.21 0.20 0.14 0.13 0.17 0.21 0.27 0.27 0.29 0.31 0.32 0.41 0.61 0.60 0.59 0.64 0.62 0.56 0.77 0.80 0.94 1.03 0.86 0.82 0.94 0.93 0.98 1.06 1.16 1.24 1.30 1.29 1.25 1.28 1.28 1.26 1.27 1.29 1.34 1.41 1.35 1.44 1.50
0.50 0.44 0.43 0.43 0.42 0.40 0.39 0.41 0.47 0.51 0.53 0.50 0.46 0.37 0.42 0.46 0.50 0.57 0.47 0.32 0.40 0.46 0.47 0.43 0.46 0.43 0.46 0.46 0.44 0.39 0.36 0.31 0.35 0.38 0.36 0.38 0.28 0.26 0.24 0.26 0.22 0.20 0.22 0.22 0.19 0.17 0.16 0.15 0.17 0.20 0.23 0.24 0.24 0.24 0.24 0.23 0.37 0.59 0.59 0.59 0.57 0.61 0.70 0.82 0.85 0.94 0.97 0.88 0.81 0.92 0.87 0.94 1.06 1.16 1.25 1.28 1.26 1.30 1.34 1.35 1.30 1.30 1.29 1.29 1.36 1.41 1.37 1.50
0.58 0.48 0.43 0.43 0.42 0.40 0.39 0.41 0.48 0.53 0.51 0.48 0.43 0.46 0.46 0.56 0.64 0.67 0.59 0.45 0.40 0.46 0.44 0.43 0.39 0.38 0.38 0.42 0.40 0.36 0.30 0.27 0.26 0.33 0.35 0.33 0.27 0.29 0.26 0.23 0.22 0.24 0.25 0.25 0.20 0.18 0.15 0.16 0.18 0.20 0.24 0.24 0.23 0.23 0.23 0.24 0.38 0.53 0.59 0.53 0.48 0.58 0.52 0.49 0.75 0.87 0.93 0.85 0.79 0.89 0.86 0.92 1.05 1.15 1.19 1.25 1.28 1.30 1.37 1.40 1.38 1.35 1.31 1.33 1.34 1.36 1.43 1.36
0.63 0.56 0.46 0.42 0.43 0.39 0.39 0.39 0.49 0.51 0.47 0.47 0.45 0.43 0.52 0.62 0.63 0.66 0.55 0.38 0.33 0.42 0.43 0.41 0.43 0.40 0.35 0.32 0.38 0.35 0.28 0.26 0.29 0.29 0.39 0.33 0.28 0.30 0.29 0.27 0.25 0.24 0.23 0.25 0.23 0.20 0.17 0.18 0.20 0.21 0.26 0.25 0.25 0.25 0.31 0.31 0.34 0.42 0.51 0.48 0.51 0.51 0.56 0.55 0.65 0.82 0.92 0.93 0.93 0.89 0.85 0.85 0.97 0.98 1.08 1.19 1.30 1.31 1.35 1.39 1.40 1.42 1.42 1.42 1.42 1.42 1.43 1.37
0.64 0.61 0.52 0.44 0.41 0.40 0.36 0.39 0.40 0.43 0.49 0.48 0.46 0.49 0.51 0.61 0.63 0.64 0.52 0.47 0.42 0.45 0.54 0.46 0.46 0.39 0.33 0.39 0.39 0.31 0.29 0.29 0.31 0.32 0.36 0.30 0.28 0.28 0.27 0.30 0.28 0.23 0.24 0.25 0.24 0.20 0.20 0.22 0.22 0.22 0.25 0.28 0.31 0.35 0.37 0.33 0.29 0.32 0.34 0.45 0.46 0.51 0.57 0.62 0.75 0.73 0.65 0.67 0.87 0.81 0.63 0.66 0.87 0.96 1.00 1.10 1.21 1.22 1.32 1.27 1.30 1.35 1.37 1.39 1.35 1.35 1.41 1.44
0.60 0.63 0.58 0.48 0.42 0.39 0.35 0.28 0.45 0.46 0.47 0.44 0.47 0.49 0.53 0.60 0.63 0.63 0.51 0.44 0.34 0.41 0.47 0.31 0.40 0.31 0.39 0.30 0.34 0.35 0.35 0.28 0.33 0.34 0.36 0.31 0.31 0.26 0.28 0.26 0.27 0.22 0.25 0.25 0.22 0.22 0.22 0.25 0.23 0.23 0.25 0.28 0.34 0.34 0.37 0.34 0.32 0.30 0.34 0.43 0.54 0.63 0.68 0.69 0.68 0.64 0.50 0.48 0.70 0.91 0.61 0.57 0.84 0.85 0.93 1.03 1.11 1.17 1.28 1.26 1.27 1.31 1.30 1.29 1.33 1.34 1.33 1.36
0.59 0.60 0.62 0.54 0.44 0.42 0.23 0.22 0.44 0.46 0.39 0.43 0.48 0.55 0.59 0.63 0.63 0.60 0.51 0.41 0.32 0.40 0.33 0.36 0.35 0.35 0.37 0.33 0.32 0.34 0.22 0.25 0.32 0.35 0.35 0.33 0.28 0.31 0.25 0.24 0.27 0.27 0.27 0.29 0.21 0.19 0.22 0.23 0.21 0.22 0.24 0.25 0.29 0.28 0.30 0.30 0.29 0.30 0.51 0.59 0.61 0.67 0.67 0.64 0.63 0.60 0.57 0.77 0.79 0.86 0.81 0.63 0.64 0.79 0.95 1.00 1.01 1.09 1.17 1.21 1.25 1.31 1.32 1.28 1.29 1.29 1.28 1.30
0.60 0.58 0.62 0.59 0.47 0.43 0.30 0.33 0.38 0.35 0.37 0.48 0.57 0.60 0.62 0.64 0.63 0.62 0.52 0.23 0.18 0.39 0.31 0.34 0.35 0.41 0.36 0.34 0.35 0.30 0.27 0.32 0.26 0.30 0.35 0.34 0.32 0.26 0.28 0.24 0.25 0.26 0.26 0.27 0.18 0.23 0.23 0.21 0.20 0.19 0.21 0.23 0.27 0.26 0.30 0.31 0.28 0.32 0.62 0.54 0.61 0.54 0.63 0.68 0.65 0.63 0.65 0.58 0.54 0.72 0.88 0.64 0.63 0.80 0.98 0.98 0.89 0.96 1.05 1.13 1.19 1.27 1.33 1.30 1.30 1.30 1.28 1.31
0.61 0.59 0.60 0.61 0.52 0.43 0.45 0.36 0.36 0.32 0.48 0.53 0.57 0.58 0.62 0.64 0.58 0.48 0.39 0.23 0.31 0.34 0.42 0.32 0.44 0.37 0.34 0.36 0.33 0.34 0.32 0.31 0.27 0.30 0.38 0.39 0.36 0.30 0.24 0.26 0.26 0.27 0.28 0.26 0.20 0.22 0.24 0.23 0.24 0.23 0.19 0.20 0.24 0.25 0.25 0.31 0.28 0.29 0.62 0.62 0.54 0.61 0.62 0.67 0.59 0.60 0.66 0.52 0.42 0.57 0.75 0.57 0.58 0.77 0.85 0.98 0.89 0.87 0.94 1.04 1.15 1.24 1.30 1.33 1.31 1.33 1.32 1.35
0.61 0.60 0.59 0.61 0.51 0.44 0.41 0.42 0.29 0.41 0.51 0.53 0.55 0.59 0.62 0.60 0.49 0.38 0.29 0.19 0.34 0.25 0.34 0.34 0.34 0.30 0.32 0.29 0.30 0.33 0.32 0.31 0.31 0.32 0.34 0.34 0.35 0.38 0.32 0.31 0.29 0.26 0.25 0.28 0.26 0.25 0.27 0.29 0.29 0.26 0.23 0.23 0.21 0.21 0.22 0.28 0.29 0.29 0.29 0.49 0.57 0.60 0.61 0.66 0.66 0.64 0.60 0.40 0.42 0.56 0.68 0.62 0.48 0.67 0.77 0.80 0.84 0.90 0.93 1.01 1.10 1.21 1.30 1.34 1.35 1.36 1.33 1.32
0.59 0.60 0.58 0.59 0.43 0.39 0.35 0.24 0.29 0.43 0.46 0.50 0.57 0.55 0.54 0.47 0.39 0.33 0.22 0.26 0.34 0.30 0.34 0.33 0.31 0.33 0.29 0.26 0.26 0.31 0.32 0.31 0.30 0.32 0.30 0.35 0.33 0.35 0.35 0.33 0.32 0.28 0.29 0.28 0.27 0.29 0.29 0.29 0.27 0.27 0.30 0.28 0.25 0.19 0.22 0.28 0.28 0.27 0.26 0.28 0.28 0.34 0.56 0.53 0.53 0.61 0.38 0.31 0.40 0.57 0.61 0.69 0.45 0.59 0.81 0.92 1.00 1.02 0.99 0.97 1.02 1.09 1.18 1.28 1.34 1.38 1.38 1.33
0.58 0.58 0.59 0.55 0.55 0.49 0.27 0.21 0.39 0.51 0.45 0.54 0.55 0.45 0.42 0.33 0.41 0.31 0.30 0.52 0.30 0.29 0.28 0.29 0.33 0.30 0.29 0.29 0.28 0.28 0.29 0.30 0.30 0.30 0.29 0.29 0.29 0.29 0.31 0.28 0.29 0.24 0.24 0.25 0.25 0.28 0.27 0.28 0.30 0.29 0.30 0.28 0.26 0.18 0.20 0.25 0.27 0.26 0.27 0.27 0.24 0.25 0.31 0.32 0.37 0.29 0.28 0.27 0.46 0.61 0.69 0.63 0.59 0.67 0.81 0.92 1.00 1.06 1.10 1.08 1.06 1.06 1.10 1.22 1.32 1.38 1.41 1.35
0.58 0.57 0.57 0.54 0.57 0.47 0.40 0.33 0.35 0.44 0.48 0.55 0.47 0.44 0.32 0.32 0.28 0.37 0.36 0.40 0.26 0.30 0.28 0.33 0.30 0.28 0.29 0.29 0.27 0.29 0.31 0.27 0.30 0.30 0.31 0.31 0.31 0.31 0.34 0.34 0.34 0.31 0.24 0.26 0.26 0.26 0.26 0.28 0.29 0.28 0.28 0.30 0.29 0.21 0.18 0.18 0.23 0.26 0.26 0.28 0.22 0.21 0.23 0.23 0.29 0.30 0.31 0.40 0.59 0.55 0.73 0.52 0.65 0.72 0.87 0.87 0.95 1.04 1.12 1.16 1.17 1.14 1.11 1.17 1.28 1.35 1.38 1.36
0.56 0.57 0.50 0.49 0.52 0.50 0.47 0.42 0.36 0.46 0.46 0.50 0.43 0.34 0.32 0.31 0.30 0.47 0.38 0.36 0.37 0.36 0.31 0.30 0.29 0.29 0.29 0.27 0.28 0.29 0.26 0.29 0.29 0.29 0.29 0.29 0.30 0.30 0.34 0.37 0.38 0.34 0.33 0.30 0.24 0.25 0.22 0.20 0.24 0.25 0.23 0.31 0.29 0.26 0.21 0.22 0.23 0.23 0.25 0.24 0.23 0.23 0.21 0.20 0.22 0.22 0.26 0.31 0.51 0.69 0.49 0.44 0.44 0.61 0.90 0.96 1.00 1.08 1.17 1.23 1.26 1.25 1.22 1.19 1.28 1.34 1.36 1.35
0.55 0.53 0.52 0.50 0.58 0.56 0.44 0.41 0.36 0.40 0.47 0.43 0.35 0.28 0.26 0.30 0.39 0.37 0.36 0.34 0.33 0.33 0.30 0.31 0.28 0.27 0.27 0.29 0.30 0.30 0.28 0.25 0.30 0.29 0.30 0.30 0.31 0.33 0.34 0.35 0.38 0.38 0.34 0.24 0.28 0.26 0.25 0.25 0.28 0.31 0.30 0.30 0.27 0.29 0.28 0.24 0.22 0.25 0.25 0.26 0.22 0.23 0.28 0.19 0.20 0.20 0.28 0.30 0.34 0.47 0.41 0.50 0.52 0.84 0.96 1.03 1.05 1.07 1.13 1.18 1.25 1.25 1.27 1.25 1.24 1.30 1.33 1.34
0.49 0.45 0.50 0.41 0.47 0.52 0.43 0.34 0.35 0.41 0.44 0.37 0.27 0.22 0.27 0.35 0.35 0.41 0.39 0.43 0.40 0.33 0.32 0.30 0.28 0.27 0.27 0.27 0.29 0.28 0.30 0.27 0.32 0.29 0.31 0.32 0.34 0.33 0.38 0.36 0.34 0.37 0.32 0.26 0.27 0.23 0.26 0.24 0.32 0.33 0.32 0.28 0.29 0.30 0.30 0.29 0.20 0.23 0.23 0.21 0.23 0.27 0.27 0.25 0.22 0.22 0.28 0.30 0.25 0.44 0.42 0.52 0.70 0.79 0.89 0.97 1.00 1.03 1.07 1.13 1.18 1.21 1.27 1.29 1.24 1.29 1.37 1.37
0.40 0.44 0.38 0.50 0.48 0.57 0.48 0.32 0.34 0.42 0.43 0.36 0.26 0.19 0.32 0.39 0.43 0.42 0.42 0.41 0.39 0.39 0.33 0.26 0.26 0.26 0.25 0.25 0.25 0.27 0.30 0.31 0.31 0.29 0.28 0.33 0.33 0.38 0.39 0.38 0.37 0.34 0.34 0.29 0.26 0.29 0.24 0.25 0.32 0.33 0.31 0.33 0.34 0.32 0.32 0.38 0.34 0.25 0.20 0.23 0.26 0.28 0.27 0.23 0.19 0.23 0.22 0.18 0.21 0.34 0.34 0.42 0.44 0.43 0.80 0.88 0.91 0.98 1.03 1.08 1.16 1.21 1.27 1.26 1.27 1.28 1.35 1.41
0.41 0.44 0.51 0.53 0.58 0.58 0.49 0.33 0.40 0.44 0.41 0.31 0.24 0.25 0.39 0.35 0.45 0.45 0.46 0.42 0.42 0.41 0.33 0.30 0.29 0.30 0.27 0.26 0.26 0.28 0.32 0.29 0.30 0.32 0.32 0.35 0.32 0.43 0.39 0.38 0.39 0.37 0.35 0.33 0.26 0.27 0.27 0.23 0.28 0.34 0.33 0.34 0.37 0.35 0.30 0.36 0.42 0.33 0.30 0.36 0.24 0.19 0.19 0.26 0.21 0.17 0.18 0.18 0.21 0.33 0.41 0.42 0.47 0.54 0.73 0.78 0.83 0.92 1.00 1.07 1.13 1.17 1.23 1.27 1.30 1.32 1.38 1.45
0.45 0.42 0.43 0.52 0.59 0.62 0.45 0.43 0.45 0.39 0.33 0.25 0.24 0.21 0.31 0.38 0.44 0.42 0.44 0.44 0.44 0.40 0.34 0.32 0.28 0.29 0.28 0.26 0.25 0.27 0.30 0.28 0.30 0.32 0.30 0.41 0.31 0.39 0.38 0.39 0.37 0.40 0.38 0.34 0.28 0.32 0.30 0.22 0.25 0.33 0.32 0.35 0.35 0.34 0.27 0.31 0.39 0.41 0.39 0.35 0.40 0.29 0.23 0.21 0.24 0.26 0.23 0.20 0.20 0.30 0.38 0.39 0.65 0.72 0.84 0.83 0.92 0.99 1.03 1.06 1.09 1.19 1.26 1.30 1.34 1.36 1.36 1.39
0.38 0.31 0.39 0.55 0.66 0.68 0.56 0.49 0.37 0.32 0.27 0.21 0.24 0.24 0.33 0.35 0.39 0.45 0.45 0.41 0.38 0.35 0.33 0.30 0.31 0.28 0.28 0.27 0.26 0.23 0.27 0.28 0.29 0.30 0.30 0.37 0.34 0.42 0.38 0.40 0.39 0.39 0.39 0.38 0.36 0.37 0.31 0.32 0.22 0.30 0.36 0.33 0.29 0.36 0.33 0.35 0.31 0.33 0.32 0.36 0.38 0.35 0.40 0.30 0.31 0.30 0.29 0.25 0.23 0.25 0.27 0.41 0.68 0.93 0.89 0.90 0.93 0.97 1.01 1.04 1.13 1.20 1.29 1.36 1.41 1.42 1.43 1.45
0.49 0.36 0.44 0.66 0.73 0.68 0.61 0.49 0.35 0.28 0.22 0.25 0.26 0.24 0.27 0.30 0.39 0.42 0.42 0.41 0.38 0.37 0.34 0.32 0.30 0.28 0.28 0.27 0.25 0.25 0.26 0.27 0.27 0.29 0.34 0.36 0.36 0.33 0.41 0.40 0.41 0.37 0.41 0.40 0.38 0.38 0.32 0.32 0.25 0.29 0.28 0.29 0.32 0.43 0.43 0.42 0.41 0.39 0.38 0.37 0.41 0.35 0.31 0.28 0.26 0.40 0.36 0.33 0.32 0.29 0.28 0.49 0.84 1.01 0.96 0.94 0.98 0.99 1.05 1.05 1.11 1.21 1.27 1.37 1.44 1.49 1.50 1.51
0.39 0.35 0.43 0.67 0.72 0.70 0.57 0.41 0.39 0.39 0.29 0.22 0.18 0.21 0.22 0.35 0.39 0.40 0.40 0.40 0.37 0.35 0.37 0.31 0.30 0.29 0.29 0.28 0.26 0.25 0.25 0.24 0.27 0.31 0.35 0.33 0.37 0.35 0.40 0.43 0.41 0.42 0.39 0.36 0.36 0.42 0.38 0.36 0.31 0.27 0.30 0.31 0.36 0.44 0.49 0.50 0.48 0.48 0.46 0.44 0.47 0.43 0.41 0.35 0.26 0.36 0.41 0.43 0.48 0.49 0.41 0.50 0.83 0.97 1.03 0.99 1.02 1.03 1.07 1.11 1.12 1.21 1.28 1.34 1.42 1.51 1.56 1.55
0.36 0.41 0.55 0.60 0.67 0.63 0.49 0.40 0.42 0.38 0.30 0.27 0.29 0.26 0.33 0.34 0.35 0.36 0.36 0.38 0.35 0.35 0.33 0.29 0.28 0.28 0.30 0.28 0.26 0.25 0.25 0.24 0.25 0.26 0.31 0.34 0.36 0.39 0.40 0.40 0.40 0.40 0.38 0.40 0.40 0.41 0.45 0.35 0.30 0.32 0.36 0.38 0.39 0.44 0.47 0.49 0.49 0.45 0.49 0.53 0.50 0.41 0.42 0.39 0.37 0.43 0.38 0.41 0.39 0.44 0.40 0.54 0.82 1.02 1.10 1.09 1.09 1.11 1.11 1.13 1.13 1.20 1.30 1.35 1.37 1.44 1.51 1.56
0.38 0.42 0.54 0.64 0.70 0.65 0.46 0.36 0.34 0.35 0.35 0.37 0.34 0.34 0.39 0.37 0.37 0.37 0.36 0.38 0.38 0.34 0.32 0.28 0.27 0.29 0.26 0.27 0.26 0.25 0.26 0.22 0.26 0.26 0.28 0.33 0.34 0.41 0.41 0.39 0.38 0.35 0.33 0.37 0.32 0.39 0.31 0.41 0.32 0.26 0.24 0.27 0.28 0.32 0.34 0.43 0.45 0.45 0.47 0.52 0.54 0.55 0.50 0.48 0.46 0.47 0.36 0.43 0.47 0.41 0.34 0.51 0.84 1.02 1.07 1.10 1.10 1.07 1.09 1.15 1.20 1.18 1.30 1.35 1.39 1.45 1.52 1.60
0.44 0.44 0.52 0.60 0.66 0.61 0.43 0.47 0.42 0.38 0.38 0.37 0.34 0.34 0.36 0.36 0.42 0.41 0.40 0.42 0.44 0.37 0.34 0.30 0.30 0.31 0.28 0.28 0.26 0.26 0.27 0.25 0.23 0.26 0.28 0.30 0.33 0.39 0.41 0.39 0.40 0.38 0.38 0.43 0.41 0.43 0.35 0.36 0.33 0.25 0.21 0.19 0.19 0.21 0.25 0.29 0.36 0.44 0.51 0.52 0.55 0.52 0.49 0.44 0.34 0.38 0.31 0.44 0.46 0.43 0.45 0.57 0.77 0.90 0.93 0.99 1.05 1.08 1.13 1.16 1.20 1.26 1.29 1.36 1.42 1.45 1.53 1.59
0.41 0.25 0.42 0.54 0.59 0.57 0.57 0.60 0.53 0.46 0.42 0.42 0.36 0.35 0.34 0.34 0.39 0.45 0.47 0.45 0.46 0.46 0.41 0.36 0.33 0.31 0.30 0.28 0.26 0.26 0.26 0.29 0.26 0.30 0.29 0.32 0.35 0.38 0.40 0.42 0.41 0.40 0.42 0.45 0.44 0.44 0.40 0.41 0.39 0.36 0.32 0.30 0.33 0.35 0.43 0.47 0.45 0.38 0.44 0.49 0.51 0.56 0.59 0.55 0.48 0.37 0.32 0.40 0.39 0.50 0.51 0.54 0.62 0.69 0.76 0.87 0.99 1.02 1.06 1.13 1.15 1.17 1.25 1.33 1.39 1.47 1.52 1.56
0.52 0.33 0.43 0.40 0.52 0.53 0.55 0.58 0.54 0.51 0.43 0.49 0.38 0.40 0.34 0.34 0.41 0.44 0.47 0.40 0.41 0.41 0.41 0.37 0.34 0.29 0.30 0.27 0.28 0.26 0.28 0.28 0.33 0.32 0.33 0.34 0.38 0.40 0.42 0.43 0.44 0.46 0.45 0.49 0.52 0.46 0.42 0.37 0.41 0.42 0.42 0.42 0.44 0.44 0.49 0.51 0.44 0.46 0.46 0.48 0.53 0.54 0.56 0.53 0.48 0.43 0.52 0.39 0.34 0.51 0.57 0.51 0.55 0.66 0.75 0.85 0.94 1.01 1.07 1.13 1.18 1.21 1.24 1.27 1.35 1.42 1.49 1.55
0.39 0.52 0.57 0.64 0.52 0.46 0.48 0.50 0.55 0.52 0.53 0.53 0.45 0.49 0.45 0.42 0.41 0.39 0.42 0.43 0.42 0.42 0.37 0.37 0.34 0.32 0.32 0.30 0.29 0.26 0.28 0.28 0.30 0.30 0.36 0.36 0.37 0.40 0.40 0.43 0.43 0.49 0.48 0.45 0.47 0.42 0.39 0.35 0.46 0.45 0.44 0.46 0.48 0.48 0.52 0.53 0.52 0.50 0.50 0.51 0.52 0.57 0.56 0.53 0.56 0.59 0.55 0.40 0.33 0.47 0.53 0.50 0.58 0.66 0.78 0.87 0.96 1.01 1.09 1.16 1.22 1.28 1.29 1.30 1.32 1.34 1.39 1.46
0.59 0.61 0.60 0.73 0.54 0.58 0.57 0.58 0.59 0.54 0.51 0.52 0.49 0.51 0.50 0.48 0.43 0.42 0.41 0.40 0.40 0.40 0.39 0.33 0.33 0.34 0.33 0.32 0.30 0.28 0.29 0.27 0.29 0.34 0.34 0.35 0.36 0.36 0.34 0.37 0.42 0.48 0.45 0.43 0.44 0.46 0.41 0.40 0.45 0.44 0.41 0.42 0.45 0.48 0.54 0.53 0.53 0.52 0.52 0.53 0.55 0.56 0.56 0.58 0.61 0.65 0.60 0.54 0.55 0.53 0.55 0.55 0.68 0.74 0.82 0.92 1.05 1.11 1.16 1.24 1.28 1.26 1.24 1.26 1.25 1.28 1.35 1.41
0.57 0.56 0.49 0.62 0.62 0.61 0.62 0.61 0.56 0.54 0.49 0.55 0.45 0.51 0.51 0.49 0.46 0.48 0.47 0.42 0.36 0.39 0.42 0.34 0.36 0.36 0.34 0.33 0.33 0.30 0.32 0.33 0.35 0.32 0.36 0.35 0.35 0.37 0.36 0.36 0.36 0.40 0.42 0.40 0.42 0.45 0.39 0.43 0.43 0.41 0.34 0.35 0.44 0.51 0.54 0.56 0.54 0.50 0.53 0.55 0.56 0.58 0.60 0.63 0.65 0.69 0.69 0.63 0.61 0.59 0.57 0.58 0.77 0.88 0.89 0.99 1.06 1.15 1.16 1.14 1.17 1.23 1.27 1.25 1.24 1.25 1.29 1.37
0.75 0.80 0.77 0.56 0.44 0.51 0.57 0.57 0.53 0.49 0.46 0.52 0.48 0.52 0.50 0.50 0.47 0.51 0.49 0.47 0.40 0.40 0.42 0.38 0.39 0.36 0.35 0.33 0.32 0.30 0.33 0.36 0.37 0.38 0.38 0.37 0.33 0.36 0.34 0.36 0.37 0.34 0.38 0.38 0.41 0.42 0.38 0.40 0.45 0.38 0.31 0.32 0.41 0.44 0.50 0.54 0.55 0.53 0.53 0.56 0.58 0.57 0.55 0.63 0.67 0.73 0.66 0.58 0.61 0.59 0.51 0.52 0.73 0.88 0.95 0.98 1.03 1.07 1.07 1.14 1.17 1.19 1.23 1.24 1.24 1.26 1.31 1.37
0.77 0.86 0.84 0.69 0.45 0.49 0.46 0.51 0.50 0.46 0.41 0.51 0.52 0.54 0.53 0.52 0.57 0.58 0.48 0.49 0.46 0.47 0.48 0.49 0.45 0.41 0.41 0.38 0.34 0.33 0.37 0.40 0.40 0.42 0.43 0.42 0.40 0.39 0.38 0.37 0.36 0.34 0.32 0.32 0.39 0.34 0.37 0.36 0.31 0.34 0.28 0.29 0.38 0.45 0.49 0.51 0.51 0.49 0.50 0.56 0.62 0.64 0.68 0.70 0.77 0.78 0.73 0.70 0.59 0.51 0.53 0.70 0.80 0.89 0.84 0.91 0.99 1.04 1.06 1.11 1.11 1.18 1.24 1.25 1.24 1.27 1.34 1.42
Wind_Speed
9 9 9 9 10 10 11 11 11 11 11 11 11 12 12 12 12 12 12 12 12 13 13 13 13 13 13 13 13 13 13 12 11 11 11 11 10 10 10 9 10 10 9 8 8 8 7 7 6 6 5 4 4 4 4 5 5 3 2 1 1 1 1 1 1 2 2 2 3 3 2 2 2 1 1 1 2 6 5 4 3 2 4 6 7 9 10 9
9 9 10 10 10 11 11 11 11 11 11 12 12 12 13 13 13 13 13 13 13 13 13 13 13 13 13 13 13 13 12 11 11 11 11 11 10 10 10 10 10 10 10 9 9 9 8 8 7 6 6 6 5 5 5 5 5 4 2 2 3 2 2 1 2 2 1 2 3 3 3 3 3 2 1 1 1 5 6 4 4 5 5 6 9 11 10 9
9 10 10 10 11 11 11 11 12 12 12 12 13 13 13 13 14 14 14 14 14 13 13 13 13 13 13 13 13 12 11 10 9 9 10 9 10 11 10 10 10 10 10 10 10 9 9 8 8 7 7 8 7 7 6 5 5 5 3 4 5 4 2 2 3 3 2 3 3 3 3 3 4 2 1 1 1 4 6 5 5 5 6 7 9 10 9 9
9 10 10 11 11 11 12 12 12 12 13 13 13 14 14 14 14 14 14 14 14 14 14 13 13 13 13 12 12 11 9 8 7 7 7 8 9 10 10 10 10 10 10 10 10 10 9 8 8 8 7 8 6 7 7 6 6 5 4 5 6 4 2 3 4 3 2 2 2 3 3 4 5 4 2 0 1 3 5 7 8 7 8 8 9 10 9 8
9 10 11 11 12 12 12 12 13 13 13 14 14 14 14 15 15 15 15 15 14 14 14 14 13 13 12 12 11 9 8 6 7 7 7 7 8 9 10 10 10 10 10 10 10 10 10 8 7 7 6 6 5 5 5 6 6 6 5 4 4 4 3 4 5 3 3 2 2 2 3 4 5 4 3 1 2 4 5 7 8 8 9 9 9 9 9 8
10 10 11 12 12 12 12 13 13 13 14 14 14 14 15 15 15 15 15 15 15 14 14 14 13 12 12 11 9 8 6 6 7 7 7 7 7 8 9 10 10 10 10 10 10 10 9 8 7 6 6 5 5 5 5 6 7 6 6 4 5 5 3 4 4 4 3 3 3 3 3 4 4 4 4 3 3 4 5 7 8 8 8 9 9 8 9 8
10 11 12 12 12 13 13 13 13 14 14 14 14 15 15 15 16 16 15 15 15 15 14 14 13 12 11 10 7 6 6 7 8 7 7 7 7 8 8 9 10 10 10 10 11 10 10 8 7 7 7 5 5 6 6 8 8 7 7 6 5 5 4 4 4 4 3 3 4 4 4 4 5 6 4 4 4 4 6 8 8 8 8 9 9 8 9 8
11 11 12 13 13 13 13 14 14 14 14 14 15 15 15 16 16 16 16 15 15 15 14 13 12 11 10 8 7 6 6 6 6 6 7 7 7 7 7 8 9 10 10 11 11 11 9 9 9 8 7 6 6 6 6 7 6 5 8 8 6 5 4 4 4 4 3 3 4 4 4 5 6 7 6 6 5 5 7 9 8 9 9 9 9 9 9 8
11 12 12 13 13 13 14 14 14 14 14 14 15 15 16 16 16 16 16 15 15 14 14 13 11 11 10 8 6 6 5 5 4 5 5 5 6 6 7 7 9 10 10 11 12 11 10 9 9 8 7 7 6 5 6 6 5 4 7 7 5 4 3 3 3 3 3 4 5 4 5 7 7 8 8 7 6 6 9 11 10 10 10 9 10 10 9 8
11 12 12 13 13 14 14 14 14 14 14 15 15 16 16 16 16 16 16 15 14 14 13 12 11 10 9 7 6 5 5 4 3 4 4 4 4 5 6 7 8 10 10 11 12 12 11 10 9 9 9 9 6 5 6 4 4 3 5 3 3 3 3 3 3 3 4 4 5 5 6 8 8 8 9 7 7 7 9 12 11 11 11 10 10 10 9 8
11 12 13 13 14 14 14 15 15 15 15 15 16 16 16 16 16 16 16 15 14 13 12 10 10 9 8 7 5 5 5 3 3 3 4 3 3 4 5 6 8 9 11 11 12 12 12 11 10 10 9 9 7 6 6 3 1 4 4 2 3 3 3 4 4 4 4 5 6 5 7 9 9 9 9 8 8 8 9 14 13 12 11 11 11 10 9 8
12 12 13 13 14 14 15 15 15 15 15 16 16 16 16 16 16 16 15 14 13 12 11 9 9 8 7 6 5 5 5 4 3 3 4 3 3 4 5 6 8 9 10 11 12 12 12 11 9 9 9 8 7 6 6 4 2 5 4 3 5 4 4 5 5 5 5 6 7 6 8 10 10 11 10 9 9 9 10 15 14 13 12 11 11 10 9 8
12 12 13 14 14 15 15 15 15 15 16 16 16 16 17 16 16 15 14 13 12 10 9 8 8 7 7 6 5 5 5 4 4 3 4 3 4 4 5 6 8 9 10 11 12 12 11 10 9 9 9 8 8 8 7 6 4 5 3 3 6 5 5 6 5 5 5 7 7 6 9 11 11 12 12 11 10 10 12 15 14 12 12 12 11 10 9 8
12 12 13 14 14 15 15 15 15 16 16 16 16 16 16 16 15 14 13 12 10 9 7 7 7 7 6 6 5 5 5 4 4 4 4 4 4 4 5 6 7 8 10 11 12 12 11 10 9 10 10 9 9 8 7 7 6 5 4 4 5 6 6 7 6 5 6 8 7 6 9 11 11 11 12 13 12 12 13 16 14 12 13 13 12 10 9 8
12 13 13 14 14 15 15 15 16 16 16 16 16 17 16 16 14 13 12 10 9 7 6 6 6 6 7 6 5 6 5 3 3 4 3 4 4 4 5 6 7 8 8 9 10 10 10 10 9 10 11 10 9 7 7 7 7 6 6 6 6 6 7 8 7 7 7 8 8 7 9 11 10 9 10 13 15 12 13 16 14 13 15 14 12 10 10 9
13 13 13 14 15 15 15 15 16 16 16 17 17 17 16 15 13 11 10 9 8 7 5 6 6 5 7 6 5 6 4 3 3 3 3 4 4 3 4 5 6 7 8 8 9 9 9 8 8 9 11 11 10 8 7 6 7 7 6 7 8 7 7 8 8 8 7 7 8 8 9 10 9 9 11 14 16 12 12 14 13 13 16 14 12 11 10 10
13 13 13 14 15 15 15 15 15 16 16 17 17 16 15 13 11 10 9 9 8 6 5 5 5 5 5 5 6 6 4 3 3 2 3 4 4 3 3 4 4 5 7 8 8 9 8 8 8 8 9 10 11 9 8 8 9 8 6 7 8 7 7 7 8 8 7 6 7 8 8 10 8 8 12 16 17 14 12 12 11 12 16 14 13 12 11 10
14 14 14 14 14 15 15 15 15 15 16 17 17 16 15 12 10 8 9 9 8 7 5 4 5 5 4 4 5 5 3 2 2 2 2 3 3 3 3 4 4 3 4 6 7 8 8 7 7 7 7 9 10 10 10 10 9 8 7 7 7 6 6 7 7 7 6 5 6 6 7 6 2 5 12 16 17 14 11 11 11 12 14 13 13 12 11 10
14 14 14 14 15 15 15 15 15 15 16 16 16 14 12 11 9 8 9 9 9 7 5 4 3 4 4 5 5 5 4 2 2 3 3 2 2 3 2 3 4 3 3 4 5 7 7 7 7 7 8 9 10 11 11 10 8 8 7 6 6 6 7 7 7 6 4 4 5 5 5 3 3 6 11 14 14 13 10 10 12 13 13 12 11 10 9 10
15 15 15 15 15 15 14 15 14 14 15 15 14 13 11 11 10 8 10 10 8 7 6 5 4 4 6 6 5 5 4 3 3 3 3 2 1 2 2 2 2 3 3 4 4 5 6 7 8 9 10 10 11 11 11 10 8 7 7 6 5 5 6 5 5 6 4 3 4 4 3 3 4 6 10 11 11 10 10 12 14 13 13 12 12 11 9 9
16 15 15 15 15 15 14 14 14 14 14 13 13 11 10 11 9 9 11 10 8 7 7 6 4 5 6 6 5 5 5 4 4 4 3 2 1 1 3 3 2 2 4 5 4 3 4 5 8 10 12 11 11 11 12 11 11 10 8 6 6 6 5 5 4 5 4 3 3 2 2 2 3 5 8 9 10 11 11 14 15 14 14 13 13 13 11 8
16 16 16 16 15 15 14 14 14 13 12 11 11 10 9 9 9 10 10 9 9 8 6 6 6 7 7 7 7 5 5 4 5 5 2 1 1 2 3 3 3 3 3 3 3 4 4 5 8 10 11 10 10 11 11 13 13 12 9 7 6 7 6 5 5 5 4 3 3 2 2 3 3 4 6 9 11 12 13 14 15 15 15 14 13 13 12 10
17 16 16 16 15 15 14 14 14 12 10 10 11 10 9 9 10 11 10 7 9 9 7 6 7 8 8 7 6 5 5 4 4 4 3 3 3 4 4 4 4 4 4 4 5 6 6 7 9 10 9 8 9 11 11 12 12 11 10 8 8 8 7 7 7 5 5 4 3 3 3 4 4 4 6 9 10 11 13 13 13 15 15 15 13 12 13 12
17 17 17 17 16 15 14 14 12 10 10 11 10 10 10 10 10 11 10 7 7 8 8 6 6 7 7 6 5 4 5 5 4 3 4 3 4 4 4 4 5 5 5 5 7 8 8 8 8 9 8 8 9 10 9 8 9 10 10 10 9 10 10 8 7 6 5 4 3 3 3 5 6 6 7 9 9 10 12 13 13 14 15 15 13 12 14 14
17 18 17 17 16 15 15 13 10 10 11 11 10 10 11 10 10 11 10 7 7 7 7 6 5 6 5 4 4 4 4 6 4 3 3 3 3 4 4 4 4 4 5 6 7 8 9 9 8 8 8 8 7 7 7 7 7 9 10 11 11 11 9 8 7 6 5 6 6 5 4 6 7 8 9 9 9 10 12 13 14 14 15 15 14 13 14 14
18 18 18 17 16 16 14 10 9 11 11 10 10 11 11 10 11 12 9 7 6 6 6 5 5 5 5 4 4 4 6 6 4 3 3 3 3 3 3 4 4 4 5 6 7 7 7 7 7 7 7 6 5 5 6 5 5 7 8 8 8 8 8 9 8 7 6 7 7 7 5 5 7 9 11 10 10 11 12 13 14 15 15 15 15 14 14 15
18 19 18 17 16 15 12 9 11 11 10 10 11 11 11 11 12 11 8 7 7 5 4 5 5 6 5 3 4 4 5 5 4 4 4 3 3 2 3 4 4 5 4 3 5 6 6 4 4 6 6 5 5 6 6 5 4 6 6 5 5 7 9 10 8 7 7 6 5 6 6 5 6 8 11 12 11 12 12 14 15 15 15 16 16 15 15 17
19 19 19 17 16 14 11 10 11 10 9 10 11 11 11 11 11 10 7 6 6 4 4 4 5 6 4 3 3 3 4 3 3 5 3 2 2 0 2 4 3 4 4 2 3 6 5 4 4 5 6 7 8 8 8 5 5 6 7 7 6 7 8 9 8 7 7 6 5 8 7 5 6 7 7 10 12 13 13 15 15 16 17 16 16 15 15 17
19 19 19 17 15 13 11 10 10 9 9 10 11 11 10 10 9 8 7 6 5 5 5 4 5 6 5 4 4 4 4 4 3 4 3 1 1 0 1 3 2 2 3 3 4 6 5 5 5 4 5 7 10 10 9 8 7 7 7 8 7 6 7 7 7 7 7 6 8 10 9 6 6 6 6 8 11 13 13 14 15 17 18 17 16 16 16 18
19 19 19 17 14 12 11 11 10 9 10 10 11 11 10 9 8 7 7 7 6 6 5 4 5 6 4 5 6 5 5 4 4 3 2 2 2 1 1 2 1 0 2 2 4 5 6 6 5 4 5 6 7 9 10 11 10 8 7 7 6 6 7 6 6 7 6 7 9 10 11 8 6 7 7 8 9 10 11 12 14 16 17 18 17 17 17 18
20 19 18 16 13 11 11 10 10 9 10 10 10 9 8 7 7 6 7 8 7 7 6 5 6 6 5 4 6 5 5 5 4 2 2 3 2 2 2 2 2 2 3 3 4 5 5 6 6 6 5 4 4 6 9 10 9 7 7 7 7 7 8 7 8 8 8 8 8 9 10 8 7 7 8 8 8 8 9 11 13 15 17 18 18 18 18 19
20 20 18 15 13 12 11 10 10 10 10 10 9 8 6 6 7 7 8 9 7 6 6 6 6 6 5 4 5 6 5 5 3 2 3 2 1 2 3 3 3 2 3 4 4 4 5 6 7 7 6 4 2 3 6 8 7 7 7 7 7 7 8 8 9 10 10 10 9 8 9 8 9 9 8 10 10 8 9 10 12 15 17 17 18 19 18 19
21 20 18 14 12 12 12 11 11 10 10 9 8 6 5 5 6 7 8 8 7 7 7 6 6 5 4 5 7 7 5 5 4 3 3 2 2 3 3 4 4 3 3 3 3 3 4 4 4 4 5 4 2 2 4 7 8 8 8 8 8 8 8 10 11 10 10 11 10 8 9 9 9 9 9 10 11 11 10 11 11 14 17 18 18 19 19 19
22 20 17 14 12 13 13 12 11 10 9 9 7 6 5 5 6 7 7 8 8 7 6 6 6 5 5 7 7 6 5 5 4 3 2 2 3 3 3 4 4 5 3 3 2 1 2 2 1 2 4 4 3 3 4 6 8 9 10 9 10 10 9 10 11 10 10 9 8 8 9 10 9 9 8 8 8 9 10 11 12 13 16 18 18 19 19 19
22 19 16 14 12 13 12 11 11 10 9 8 6 6 6 7 7 7 7 7 8 8 7 6 5 6 8 9 8 5 4 4 4 2 2 2 3 3 3 4 2 4 3 3 4 3 2 2 3 3 3 3 3 5 4 3 6 9 9 8 9 11 11 11 12 12 11 9 9 10 11 11 10 9 8 6 5 5 7 10 12 12 13 16 18 19 19 20
21 18 15 14 13 12 11 11 10 9 9 7 7 8 8 8 7 7 7 8 9 9 8 7 5 6 9 10 8 6 4 3 3 3 3 4 4 4 3 3 2 2 3 3 4 4 3 3 4 2 2 2 4 6 4 3 6 9 9 9 11 10 10 12 12 12 11 10 10 12 11 10 9 9 9 7 5 5 6 7 11 12 12 14 17 18 19 20
20 17 15 14 13 11 10 9 9 9 9 7 8 10 10 9 8 8 8 9 10 10 7 6 6 6 8 9 5 4 3 3 3 3 5 5 5 5 4 4 3 3 4 4 4 5 4 4 4 1 2 4 5 4 3 3 4 6 8 11 11 9 9 10 10 10 10 11 11 11 11 11 9 9 9 7 6 6 6 7 9 11 12 14 16 17 18 20
19 17 15 15 12 10 9 9 9 9 9 8 9 11 10 9 8 8 10 10 10 10 7 7 7 6 7 6 5 5 5 4 3 4 5 5 5 4 4 5 5 4 4 3 2 3 4 5 6 4 4 5 5 3 4 5 4 4 7 9 9 9 9 9 9 10 10 11 11 10 10 11 10 10 9 8 8 7 7 7 8 10 12 14 15 15 16 18
18 16 15 14 12 10 10 10 10 9 9 9 11 11 10 9 9 10 11 10 10 10 8 8 7 7 7 5 5 6 5 5 5 4 4 5 5 4 4 4 5 5 4 2 2 3 2 4 8 8 7 7 6 5 6 7 6 6 6 7 8 9 9 9 10 10 10 11 11 10 10 10 11 10 8 7 8 7 8 8 8 9 11 13 15 15 15 17
17 15 14 14 12 10 10 10 10 9 10 10 11 11 10 10 10 11 12 11 10 8 7 8 8 8 8 6 5 5 3 4 5 5 5 4 4 5 5 4 5 5 4 3 3 4 3 3 7 9 8 7 7 7 7 8 8 7 7 7 7 8 8 9 9 9 10 11 11 11 11 11 12 11 8 7 7 8 8 9 9 10 11 12 14 15 15 16
16 15 14 13 12 10 10 10 10 10 10 11 11 11 11 11 11 11 12 12 10 8 7 8 8 9 8 7 6 5 4 4 4 4 4 5 4 5 6 6 6 6 6 5 4 4 4 4 6 8 8 7 9 9 8 8 7 7 8 8 8 7 6 7 8 8 8 9 11 11 11 11 12 11 9 8 8 8 7 8 9 10 11 12 13 14 15 16
16 15 14 13 13 12 10 10 12 11 10 11 11 11 12 11 11 11 12 11 10 9 8 8 8 8 8 7 6 5 5 4 4 3 4 5 5 5 6 7 6 5 6 7 7 6 6 5 6 8 8 9 11 10 8 7 7 7 8 9 9 8 7 7 8 9 8 8 10 10 10 11 12 11 10 9 9 8 7 7 7 9 10 11 12 14 15 16
16 16 15 14 13 12 10 11 11 11 11 12 12 12 12 12 12 11 11 10 9 8 7 7 6 7 7 7 6 6 5 5 5 4 4 4 5 5 6 5 5 5 6 7 8 7 6 6 7 8 9 9 10 10 8 7 8 8 9 10 9 9 9 9 9 9 7 8 9 9 9 11 12 11 10 9 8 7 7 7 7 8 10 11 12 13 14 15
16 16 15 14 13 12 11 10 10 11 11 11 11 12 12 12 12 11 10 10 10 8 6 6 5 6 6 6 6 6 6 5 5 5 5 5 5 6 5 4 4 6 7 7 7 6 6 6 6 6 7 8 8 8 8 8 8 9 11 11 10 11 11 10 10 9 8 8 10 10 11 12 12 10 9 8 7 7 7 7 7 8 9 10 11 12 13 14
15 15 15 14 13 13 12 11 10 11 10 11 12 12 12 12 11 11 12 13 12 9 7 7 6 6 6 5 5 6 6 6 6 6 6 6 6 6 5 4 3 4 5 6 5 5 5 5 5 4 4 5 5 7 8 9 9 9 11 12 11 11 12 12 12 11 10 10 10 11 12 12 12 11 10 9 8 7 7 7 7 8 9 9 10 11 12 13
13 14 14 13 12 13 13 12 11 10 10 11 11 12 12 11 11 11 13 13 13 11 10 9 7 6 6 5 5 6 7 6 6 5 5 5 5 5 3 2 3 3 4 5 3 3 4 5 5 3 3 4 5 7 8 7 8 9 10 11 11 12 12 12 12 12 13 12 11 12 14 13 12 12 11 10 8 8 8 7 7 8 8 9 9 10 12 13
13 14 13 12 12 12 12 12 11 11 12 11 11 11 12 12 11 11 10 10 10 10 9 10 9 8 7 6 5 6 7 6 6 5 5 4 4 4 2 3 4 4 4 4 3 3 4 5 4 4 5 6 6 7 7 6 6 8 9 10 11 12 12 12 13 14 14 13 13 15 14 13 14 13 11 10 9 9 9 8 7 8 8 8 8 8 9 11
15 15 13 11 12 12 12 13 13 13 13 12 11 11 12 12 11 11 10 9 9 7 7 9 10 9 9 8 7 7 7 7 7 7 7 6 5 6 5 5 6 5 4 5 5 5 4 5 5 4 6 7 7 7 7 6 6 7 8 9 10 10 11 11 13 15 14 14 15 16 15 14 14 13 11 11 10 9 9 8 7 7 7 8 7 7 7 8
15 15 14 13 13 13 13 14 14 13 12 12 11 11 10 11 12 11 10 9 8 7 7 9 10 11 11 10 8 8 8 8 8 9 8 8 7 7 7 7 7 6 6 7 8 7 5 5 6 5 6 7 7 6 6 6 6 7 7 8 9 9 10 11 12 13 13 14 15 15 15 15 14 13 13 12 10 9 9 8 8 7 7 7 7 7 7 8
14 14 14 14 14 15 15 14 13 12 12 11 11 11 10 11 11 11 11 10 9 8 7 8 10 11 11 10 9 9 10 9 9 9 9 9 8 8 8 7 7 7 7 7 8 7 5 5 6 4 5 7 7 6 5 5 6 7 7 7 8 9 9 9 10 11 11 13 14 13 14 15 15 14 13 12 11 10 9 9 8 8 8 8 7 7 7 8
15 15 15 14 15 15 15 15 14 13 12 11 11 11 11 11 11 12 12 12 11 9 8 8 10 10 9 9 10 12 11 9 9 9 9 8 8 8 8 8 8 7 7 7 7 6 5 6 6 4 5 7 7 5 5 5 5 6 7 7 8 8 7 7 9 9 10 11 12 12 14 15 15 14 13 12 11 10 9 9 9 9 9 9 8 7 7 7
15 16 16 15 15 16 16 16 15 14 14 13 13 13 13 12 11 11 11 11 11 10 8 8 9 9 9 10 11 11 10 9 9 8 7 7 8 8 8 8 8 8 8 7 7 7 6 6 7 5 5 7 7 5 5 4 4 5 6 6 6 5 5 6 7 8 9 9 10 11 13 14 13 13 13 13 13 12 11 11 10 10 10 9 9 8 7 6
Wind_Direction
22 19 17 15 12 10 7 4 2 360 358 355 353 351 349 347 345 343 339 334 329 324 320 317 314 312 309 306 303 300 296 286 278 271 263 258 251 245 243 244 242 237 237 239 239 237 234 230 228 229 226 223 223 227 216 197 194 199 209 238 278 295 293 278 179 185 177 187 208 229 216 180 200 253 239 234 182 175 169 151 133 117 119 127 134 142 145 143
19 17 14 12 9 6 3 1 359 358 356 353 351 349 347 346 344 342 340 337 333 328 324 320 316 313 310 309 305 303 297 284 276 269 260 254 247 245 247 247 240 234 234 235 235 231 230 230 230 236 230 225 219 215 221 208 203 219 234 247 260 260 267 247 184 176 167 190 210 216 212 195 205 247 242 297 249 173 163 158 138 125 127 125 133 143 147 146
16 14 11 9 6 3 0 358 357 356 354 352 349 348 346 345 343 341 339 337 335 332 329 325 320 316 313 310 307 304 297 284 274 264 259 253 244 244 247 245 239 233 234 233 231 228 228 232 235 245 240 232 225 222 226 216 214 228 230 253 265 253 269 257 197 189 200 190 195 213 219 211 220 246 229 279 223 164 168 174 157 148 148 139 140 147 151 149
12 10 8 5 3 0 358 356 355 354 352 350 349 347 346 344 342 340 338 337 336 334 332 330 326 320 316 311 308 303 295 284 271 261 262 257 245 242 242 241 237 234 233 231 229 225 227 234 239 247 240 229 226 221 219 216 222 227 229 261 266 245 264 250 210 205 214 195 196 209 217 227 242 248 213 240 272 206 193 179 168 163 163 153 149 153 156 154
8 6 4 2 359 358 356 354 353 352 351 349 348 347 345 344 342 340 339 337 336 336 334 332 329 325 320 314 310 303 295 281 268 265 266 262 249 241 239 239 237 233 230 227 224 223 225 229 235 242 229 217 221 221 219 220 222 234 251 263 238 224 256 239 217 224 224 214 214 208 220 233 250 241 200 200 257 244 220 183 170 166 168 165 159 159 160 160
3 2 360 358 356 355 354 353 352 350 349 348 347 346 345 343 342 341 339 337 337 336 335 334 330 328 325 318 311 303 292 275 271 269 264 265 255 242 237 235 233 229 225 221 218 218 221 222 225 228 214 207 222 227 229 235 234 240 252 240 209 218 244 227 220 233 226 224 227 226 236 238 252 241 210 216 236 242 219 185 170 166 170 171 167 165 164 169
358 357 356 355 354 353 352 352 350 349 347 346 346 344 344 342 341 340 338 337 336 335 336 334 331 329 327 322 313 305 295 278 271 264 260 264 255 243 235 231 228 223 219 215 212 212 215 220 223 221 213 214 230 231 240 257 252 234 232 228 219 224 222 211 214 224 216 224 233 236 244 243 249 241 233 243 245 242 206 184 175 170 171 175 176 176 174 176
354 354 353 353 352 351 350 349 348 346 345 344 343 342 342 341 339 338 336 336 335 335 335 333 332 330 329 324 315 311 300 283 272 264 264 262 252 242 233 229 223 218 215 212 209 209 214 220 221 218 217 224 228 234 258 276 267 228 220 224 226 229 228 223 226 232 230 245 249 249 257 253 254 248 247 249 253 249 204 184 180 174 174 179 181 183 181 182
351 350 351 351 350 349 348 347 346 344 343 342 341 340 339 338 337 336 334 334 333 334 333 332 330 329 329 323 318 316 302 288 283 277 270 258 250 239 229 226 219 214 212 212 211 210 211 213 216 220 225 231 228 243 271 288 282 231 209 215 223 235 252 251 247 251 255 276 269 263 274 269 266 257 247 241 241 245 206 185 184 180 181 186 185 187 184 182
348 347 348 349 348 347 346 345 344 343 341 340 339 338 337 336 335 333 332 331 331 331 331 331 329 328 327 321 321 318 303 295 290 286 280 260 247 235 228 224 214 211 210 211 211 209 210 214 225 232 231 230 230 252 266 286 285 211 181 201 216 224 258 260 252 261 270 292 284 266 273 274 272 256 243 240 235 237 209 191 189 188 190 191 188 188 183 181
345 345 346 347 346 345 344 344 343 342 340 339 338 337 336 334 333 332 330 329 329 329 330 330 330 330 326 322 319 313 309 303 287 289 288 266 243 235 229 223 212 211 211 212 214 214 219 226 235 235 227 226 236 252 247 259 263 170 154 189 217 219 262 269 260 265 278 295 288 276 276 275 272 254 235 236 234 232 212 195 193 195 195 193 189 185 182 180
343 343 344 346 345 344 344 343 342 341 340 339 337 336 335 334 333 332 330 330 328 329 329 330 333 334 331 325 309 303 313 307 289 286 287 268 248 240 229 225 219 216 216 217 220 223 228 233 237 231 223 223 228 231 231 249 226 178 164 201 226 236 257 272 271 266 279 290 285 286 286 274 265 251 230 228 232 229 209 193 195 199 195 190 186 182 179 176
341 341 343 344 344 343 343 342 342 341 340 338 336 335 335 334 333 333 332 331 330 328 328 331 335 337 338 329 311 310 315 305 289 281 280 262 250 246 232 225 223 225 226 225 228 230 231 234 234 228 223 220 217 219 236 251 214 194 215 225 229 240 256 276 279 271 287 292 286 288 287 276 266 254 235 228 225 219 207 194 197 200 192 186 184 180 176 174
340 340 342 343 342 342 342 341 341 340 339 337 336 335 334 334 333 333 334 334 334 331 328 333 337 341 342 329 320 323 317 312 298 282 273 252 249 249 232 225 224 227 230 232 236 234 231 234 234 227 221 218 219 228 244 239 207 203 231 241 240 241 253 276 276 275 294 291 286 293 290 281 274 260 239 226 216 214 208 197 198 195 185 183 182 178 174 175
340 339 340 341 341 340 340 339 339 339 338 337 336 335 334 333 333 334 336 339 341 338 335 335 336 341 341 328 327 335 330 328 306 279 265 251 253 250 233 228 226 227 228 231 236 234 232 234 233 225 224 225 224 231 240 228 218 221 231 247 257 248 252 274 276 274 290 288 286 296 296 289 279 260 234 216 208 215 212 196 194 190 181 181 182 177 172 174
339 338 338 338 339 338 338 337 337 338 337 337 336 335 333 333 334 337 339 344 345 342 342 340 333 338 342 335 334 339 334 332 321 284 269 259 255 260 247 230 225 228 230 229 230 231 232 232 230 225 224 226 221 220 229 231 232 238 242 248 254 249 249 267 276 277 285 293 291 291 299 300 282 247 222 206 198 208 204 190 191 189 182 181 182 178 173 175
338 336 336 336 337 336 336 336 336 337 337 338 338 336 334 334 337 342 346 349 348 342 343 342 333 331 335 337 339 337 328 328 334 305 281 266 254 271 262 226 224 232 231 229 227 226 227 225 223 223 220 220 218 214 223 236 240 245 253 249 246 245 247 259 274 284 290 301 300 297 305 305 283 231 209 196 189 195 191 184 190 189 184 182 181 179 176 175
337 334 334 334 334 335 334 334 334 336 337 338 338 337 337 340 344 350 354 354 350 345 343 340 344 348 342 339 343 339 329 327 338 329 304 275 254 266 261 229 227 235 229 225 221 218 220 219 214 214 219 218 215 211 217 228 232 237 246 246 243 249 255 259 272 286 296 307 312 315 319 318 310 186 187 182 182 189 187 184 187 181 180 182 181 179 178 175
337 334 332 332 333 333 332 332 333 334 337 339 339 340 345 352 354 357 358 354 349 345 341 338 349 357 337 326 334 336 331 333 345 339 315 285 252 251 255 228 224 227 213 209 216 213 210 216 215 211 214 212 206 206 213 225 229 229 238 241 237 251 262 263 273 283 288 306 318 326 337 5 87 143 167 174 182 188 185 181 179 177 180 183 181 182 184 178
337 334 331 331 331 331 330 330 331 332 336 340 343 347 350 350 351 352 349 346 344 338 329 322 313 313 313 320 335 338 333 327 325 334 315 276 237 224 231 213 224 228 203 195 209 212 202 213 223 214 210 209 208 212 220 234 238 228 233 241 238 250 262 263 269 275 277 298 308 322 15 60 108 140 158 172 183 184 181 178 176 176 179 180 182 188 196 190
336 334 331 330 329 329 328 327 328 330 333 337 343 348 347 344 345 344 342 340 340 338 325 313 303 303 304 313 327 329 331 317 297 319 318 262 230 232 230 215 208 217 215 206 200 202 196 211 222 213 210 216 221 226 232 239 235 229 234 239 244 252 253 257 263 273 286 291 283 289 72 99 129 141 159 172 177 181 182 179 178 177 178 180 185 190 196 200
335 333 331 329 328 327 325 325 325 326 329 335 341 345 342 343 344 340 338 333 331 333 325 312 310 311 304 301 309 325 341 323 299 308 302 249 277 250 227 216 206 211 218 215 213 223 223 227 227 217 213 222 232 236 241 242 233 231 235 232 243 247 242 262 273 278 290 274 253 233 174 188 179 151 166 175 177 185 188 185 183 183 182 184 189 191 191 196
333 332 331 328 326 325 323 322 322 322 327 333 338 339 337 338 340 340 337 323 319 326 322 310 305 310 308 303 309 326 334 325 309 297 270 257 268 246 227 224 228 238 238 231 232 231 232 237 233 225 221 227 240 244 244 241 232 228 228 232 245 242 239 257 257 256 272 265 240 211 201 225 214 183 188 192 189 191 192 191 190 190 189 188 191 195 190 192
331 331 331 327 325 323 320 318 316 317 324 329 333 338 339 337 338 342 339 323 315 322 320 312 307 309 308 306 314 317 314 318 322 293 266 261 263 253 239 228 231 245 243 237 235 227 231 237 230 227 227 229 241 246 236 226 231 235 233 237 246 243 244 248 237 235 255 263 243 201 219 245 225 207 204 200 197 196 195 196 197 198 196 194 195 196 192 196
329 329 329 326 324 321 317 315 312 314 321 324 327 335 341 338 336 342 342 332 320 318 323 325 323 322 322 325 322 316 316 316 311 290 275 271 266 255 244 232 226 239 252 252 238 224 232 240 232 228 226 224 230 236 228 219 237 252 242 234 236 238 237 227 217 223 235 249 241 214 224 250 232 219 213 203 202 204 200 199 202 202 199 199 201 200 198 200
328 327 327 325 322 319 315 311 309 312 317 319 321 328 333 332 334 339 342 342 329 319 331 339 336 335 336 333 321 329 336 319 298 283 284 296 289 253 239 246 234 237 260 261 237 218 234 243 231 222 215 216 224 235 242 228 229 251 242 226 222 221 214 204 207 219 224 233 233 218 225 251 243 229 219 209 209 212 207 204 206 205 202 202 204 205 203 201
326 325 325 323 321 319 314 306 307 311 313 314 318 322 323 325 331 336 341 342 332 324 336 341 344 343 334 326 330 346 342 318 307 304 289 294 300 252 238 253 250 249 249 252 238 227 238 252 240 229 221 223 230 241 248 225 211 239 230 196 184 194 201 204 208 221 225 223 227 228 231 243 250 240 222 211 212 216 215 213 211 209 207 205 206 208 205 200
324 323 322 321 317 314 307 302 305 308 308 310 315 318 318 323 328 334 341 340 330 326 332 331 343 347 339 343 346 344 339 325 321 318 303 291 296 237 237 239 239 251 231 201 246 237 230 239 246 240 231 230 233 241 245 226 221 235 219 200 197 199 201 204 211 226 227 221 229 233 231 237 251 249 225 211 215 221 221 218 214 212 211 209 208 209 205 199
323 321 320 318 315 308 302 300 300 301 303 306 311 312 316 324 328 334 339 338 326 317 324 324 333 340 336 346 340 321 332 333 309 309 311 298 281 206 237 230 214 247 228 202 233 237 229 229 236 235 227 231 238 245 242 227 229 237 224 219 224 222 213 211 222 227 227 234 236 230 224 231 248 246 224 213 220 225 223 220 216 213 214 213 212 210 205 200
321 320 318 316 312 304 299 298 293 292 299 304 306 307 314 322 330 339 336 330 318 311 319 312 314 329 327 333 331 317 321 314 293 302 302 296 290 253 265 266 216 287 256 238 242 247 244 240 243 239 225 230 244 247 234 225 230 235 230 229 233 234 224 226 234 223 224 246 243 229 222 227 247 243 224 216 222 223 220 219 216 213 215 215 214 212 207 202
320 319 316 313 307 300 297 296 289 288 297 301 303 306 313 322 330 335 325 318 312 309 314 300 301 318 314 315 322 318 322 312 296 289 275 292 313 284 293 303 296 313 306 288 273 270 269 259 245 232 227 239 267 259 235 229 236 233 233 236 238 241 233 232 239 230 230 248 249 232 223 224 237 242 233 227 230 226 220 219 214 210 212 214 214 212 209 204
319 317 313 307 300 295 291 288 288 293 298 301 303 302 306 322 322 315 315 322 319 308 305 294 293 305 301 300 306 310 327 323 304 256 241 264 297 270 271 269 259 287 301 282 269 281 287 263 232 221 231 239 284 283 240 234 237 231 235 239 235 242 241 237 241 239 239 250 253 231 217 226 240 244 241 233 233 232 223 219 214 209 210 213 213 210 209 206
318 316 312 302 294 292 287 283 284 289 294 297 300 296 296 312 308 304 318 326 320 311 309 299 291 291 297 308 304 302 314 312 295 270 245 253 289 277 271 261 239 237 272 273 264 301 317 285 217 211 243 241 256 287 235 230 235 231 232 233 230 234 240 243 247 248 247 252 256 234 219 233 248 249 245 238 235 230 222 217 215 211 210 212 212 208 208 206
317 314 310 300 292 290 285 280 278 280 286 289 291 291 287 288 292 305 322 323 315 314 313 303 294 287 296 310 308 305 308 297 283 266 246 268 292 285 297 293 248 226 254 285 266 275 341 335 182 213 245 239 244 247 219 225 236 233 231 233 235 233 233 239 241 240 239 242 247 236 229 235 240 243 248 247 241 230 223 220 216 214 212 211 211 207 206 207
315 311 305 299 294 290 281 273 271 273 278 282 284 278 266 270 288 301 311 318 322 319 310 304 301 297 303 308 303 298 301 286 270 245 238 271 276 263 294 316 266 224 247 275 258 241 243 273 264 259 243 211 235 257 248 247 247 241 239 243 244 237 233 239 241 236 232 234 238 233 235 239 235 240 247 247 248 242 233 224 216 214 211 209 210 208 206 207
312 309 303 296 292 289 280 269 264 264 269 275 277 267 255 263 283 291 297 312 319 317 313 307 302 307 316 314 299 287 290 278 253 226 248 277 273 254 264 293 282 246 244 247 255 253 253 269 271 286 287 239 261 272 269 264 253 248 247 245 243 238 235 241 248 243 230 233 242 234 233 243 240 241 246 242 244 249 248 234 219 213 207 205 210 209 206 207
310 307 301 294 288 284 277 265 257 261 269 273 268 260 255 262 278 290 298 305 309 309 309 299 287 304 327 325 303 275 274 281 263 239 255 274 275 266 259 253 263 286 265 246 255 250 239 254 259 266 301 296 303 294 265 266 260 251 252 249 246 246 244 239 241 244 233 233 242 234 228 233 231 236 245 245 243 244 249 248 229 216 208 206 211 210 207 207
305 303 298 293 285 277 271 261 256 262 271 273 266 260 256 261 275 289 294 300 304 301 296 286 273 284 322 331 316 290 263 252 268 254 254 266 270 274 263 243 256 296 291 266 269 257 233 242 252 259 282 294 316 310 265 272 271 241 246 251 245 244 251 244 231 234 237 237 244 243 235 230 226 232 243 246 245 243 246 249 238 223 214 209 211 210 206 206
299 297 293 289 283 273 264 257 260 269 273 270 264 259 254 256 268 283 291 301 302 290 283 281 268 271 298 307 312 307 266 240 257 249 245 256 259 269 267 246 260 294 308 291 264 268 259 241 249 265 280 278 293 304 280 274 271 248 245 256 247 237 245 246 234 228 232 236 240 240 238 234 228 231 238 242 243 242 243 246 242 236 227 216 213 211 207 207
293 291 287 284 278 267 259 260 268 273 269 263 258 256 256 258 266 280 292 301 298 281 275 280 269 268 281 279 291 307 283 260 260 245 247 254 252 268 272 253 254 277 306 313 279 273 287 272 262 276 283 272 276 291 283 273 272 260 252 260 259 251 249 247 244 239 233 234 235 231 233 236 230 227 229 232 237 239 241 243 242 242 236 227 220 215 211 210
288 286 280 277 272 262 260 268 272 270 264 261 258 255 256 256 261 274 289 296 292 280 279 280 267 260 264 264 272 282 286 299 287 252 249 244 241 265 265 252 250 260 278 289 282 274 280 284 285 288 286 269 267 278 276 266 263 255 247 246 249 252 248 241 250 255 242 235 236 230 229 233 228 223 223 227 233 238 242 243 244 244 239 233 227 221 218 216
283 280 274 273 271 264 265 270 269 266 262 260 258 254 254 254 258 268 283 292 291 284 286 286 267 253 251 254 264 270 273 293 299 273 253 245 244 253 253 253 258 260 265 269 268 269 274 283 292 291 281 265 264 272 276 262 253 252 249 242 241 245 239 230 243 258 255 246 242 232 226 228 227 225 225 227 233 239 245 246 245 243 238 235 232 227 227 225
280 277 272 272 269 263 267 274 272 269 263 259 256 251 252 255 259 265 272 282 289 286 288 292 269 246 248 255 259 263 266 267 266 264 264 261 256 249 246 254 270 275 269 264 266 272 280 289 296 295 287 276 270 271 271 262 255 257 256 249 245 245 239 232 238 249 253 250 243 234 229 227 228 231 231 230 235 241 248 249 246 242 237 235 235 232 233 232
279 275 271 273 266 256 263 272 270 268 264 261 257 251 253 256 256 260 265 274 285 281 276 282 262 239 253 262 251 250 256 253 255 262 262 261 259 254 249 247 266 284 275 256 258 269 276 285 298 304 302 297 287 279 276 272 266 259 255 254 250 247 244 243 246 248 248 248 238 227 228 228 228 235 238 235 238 244 251 252 249 244 238 236 237 236 237 235
277 270 266 272 267 253 255 262 265 266 265 265 260 255 256 255 251 257 265 272 274 265 259 267 256 242 256 260 249 252 249 242 253 267 269 268 270 269 271 269 273 286 269 242 244 262 271 284 293 293 293 292 283 278 276 276 275 266 257 256 254 249 247 244 245 243 241 244 238 223 225 232 235 240 242 239 240 246 252 255 251 247 243 241 241 239 238 236
274 266 263 271 269 256 254 261 267 266 264 267 263 257 255 251 250 259 267 273 271 255 249 256 250 247 256 260 267 265 254 248 254 264 271 276 277 274 271 264 262 264 244 228 240 274 286 295 290 261 257 267 265 270 274 277 279 272 263 260 258 252 247 243 244 242 237 238 238 228 226 234 240 242 244 243 243 243 246 250 249 247 247 247 247 245 241 237
267 264 263 264 265 261 261 266 271 267 263 263 258 258 260 254 254 262 264 272 274 258 250 251 243 242 251 259 273 264 251 255 256 252 255 257 272 281 252 218 235 243 236 233 250 284 300 298 279 256 268 272 267 273 279 279 277 270 262 260 257 253 250 245 244 244 237 233 237 234 230 233 238 240 240 244 246 243 244 248 247 244 245 247 249 251 250 244
265 266 266 260 255 256 258 264 270 268 263 260 254 256 261 255 254 260 262 272 278 266 255 249 239 239 244 245 252 248 245 258 260 254 253 249 260 277 274 265 260 248 245 261 272 283 295 281 260 263 285 284 275 277 281 277 275 271 261 255 254 255 254 248 245 245 238 231 233 233 230 233 238 238 238 244 248 244 242 244 244 239 240 244 248 251 257 258
266 266 266 261 254 253 256 260 264 264 260 259 252 248 253 253 251 255 260 269 275 268 254 242 238 247 250 245 244 244 243 252 256 251 249 252 258 263 267 278 276 260 259 273 280 286 289 271 259 271 297 296 283 274 278 277 275 275 265 255 256 260 257 251 248 245 236 231 233 231 230 235 238 237 237 242 246 243 239 240 244 242 239 240 246 251 254 256
266 265 264 262 256 253 254 255 257 257 257 257 250 244 248 252 253 260 261 256 260 265 256 239 240 250 253 246 243 245 243 243 246 245 246 255 264 259 256 262 265 269 275 274 276 284 278 260 264 283 304 303 289 272 273 275 270 272 273 267 266 266 263 257 251 244 236 235 237 233 231 236 238 236 235 237 239 238 239 242 244 246 243 240 243 254 260 257
263 262 261 260 254 251 251 251 253 255 251 247 245 248 251 251 258 272 266 248 242 249 251 247 247 252 257 253 248 247 243 237 237 239 240 248 251 247 249 253 253 260 270 269 269 276 270 262 273 290 298 295 289 272 270 282 286 283 281 279 275 268 258 250 245 239 233 234 237 235 232 235 237 234 229 229 230 230 233 239 240 241 245 245 243 248 258 260
265 262 258 255 252 250 249 250 251 251 246 243 249 258 259 255 262 275 268 251 243 241 247 259 257 253 257 257 251 246 237 230 231 232 234 242 244 238 241 254 256 250 254 263 268 268 264 262 269 277 283 288 286 269 268 302 320 299 280 273 273 266 248 240 242 242 237 232 233 233 230 230 232 230 225 224 227 227 229 235 237 236 240 243 243 243 246 252